Flag for Canada Weather past 2 weeks in Saint John, New Brunswick, Canada

48 °F

Passing clouds.

Feels Like: 46 °F
Forecast: N/A
Wind: 5 mph from Northwest

Location: Saint John

Current Time: Oct 8, 2015 at 8:05:22 PM

Latest Report: Oct 8, 2015 at 7:00 PM

Visibility: 15 mi

Pressure: 30.08 "Hg

Humidity: 58%

Dew point: 34 °F

Location of Saint JohnLocation

Historic Weather in Saint John — Graph


Saint John temperature yesterday

Maximum temperature yesterday: 64 °F (at 4:00 PM)
Minimum temperature yesterday: 36 °F (at 3:00 AM)
Average temperature yesterday: 49 °F

Past Weeks' High & Low Weather Summary

High70 °F (Sep 30, 1:00 PM)100% (Sep 23, 10:00 PM)30.55 "Hg (Sep 23, 10:00 PM)
Low28 °F (Sep 27, 5:00 AM)31% (Sep 26, 5:00 PM)29.74 "Hg (Sep 30, 9:00 PM)
Average52 °F81%30.21 "Hg
* Reported Sep 23 6:00 PM — Oct 8 6:00 PM, Saint John, Weather by CustomWeather, © 2015

Note: Actual official high and low records may vary slightly from our data, if they occured in-between our weather recording intervals... More about our weather records


Saint John weather history for previous 24 hours

Time TempWeatherWind HumidityBarometerVisibility
6:00 PM
Thu, Oct 8
54 °FPassing clouds.9 mph44%30.06 "Hg15 mi
5:00 PM55 °FPassing clouds.12 mph41%30.03 "Hg15 mi
4:00 PM55 °FScattered clouds.13 mph41%30.03 "Hg15 mi
3:00 PM55 °FPassing clouds.12 mph41%30.03 "Hg15 mi
2:00 PM55 °FPassing clouds.8 mph44%30.03 "Hg15 mi
1:00 PM54 °FPassing clouds.13 mph47%30.04 "Hg15 mi
12:00 PM54 °FSunny.13 mph44%30.04 "Hg15 mi
11:00 AM50 °FSunny.17 mph54%30.05 "Hg15 mi
10:00 AM48 °FSunny.16 mph58%30.04 "Hg15 mi
9:00 AM46 °FSunny.9 mph66%30.03 "Hg15 mi
8:00 AM41 °FClear.7 mph81%30.01 "Hg15 mi
7:00 AM45 °FClear.12 mph71%29.98 "Hg15 mi
6:00 AM45 °FClear.9 mph76%29.95 "Hg15 mi
5:00 AM46 °FClear.13 mph82%29.92 "Hg15 mi
4:00 AM48 °FPassing clouds.14 mph76%29.90 "Hg15 mi
3:00 AM50 °FPassing clouds.14 mph82%29.89 "Hg15 mi
2:00 AM52 °FPassing clouds.14 mph82%29.87 "Hg15 mi
1:00 AM52 °FPassing clouds.9 mph88%29.85 "Hg15 mi
12:00 AM39 °FPassing clouds.No wind100%29.85 "Hg15 mi
11:00 PM
Wed, Oct 7
39 °FPassing clouds.No wind100%29.85 "Hg15 mi
10:00 PM43 °FPassing clouds.No wind93%29.85 "Hg15 mi
9:00 PM46 °FPassing clouds.3 mph93%29.84 "Hg15 mi
8:00 PM50 °FPassing clouds.No wind94%29.84 "Hg15 mi
Weather by CustomWeather, © 2015

See weather overviewHow to use our weather pages